,,Stat5,,Stat1,,Stat2,,Stat3,,Stat4,,Wind1,,Wind1,
time,status,PA1M_AVG,status,PR1M_SUM,status,RH1M_AVG,status,SR1M_AVG,status,TA1M_AVG,status,W1dAve1m,status,W1sAve1m,
2003-05-26, 00:00:00,VALID,920.626,VALID,0,VALID,97.3502,VALID,-0.0169808,VALID,20.5374,VALID,73,VALID,0.386719,
2003-05-26, 00:01:00,VALID,920.61,VALID,0,VALID,97.3261,VALID,-0.0169808,VALID,20.5506,VALID,91,VALID,0.276116,
2003-05-26, 00:02:00,VALID,920.598,VALID,0,VALID,97.2841,VALID,-0.0339617,VALID,20.5541,VALID,91,VALID,0.00616776,
2003-05-26, 00:03:00,VALID,920.584,VALID,0,VALID,97.2828,VALID,-0.0169808,VALID,20.5501,VALID,91,VALID,0,
2003-05-26, 00:04:00,VALID,920.576,VALID,0,VALID,97.2638,VALID,-0.0339617,VALID,20.56,VALID,91,VALID,0,
2003-05-26, 00:05:00,VALID,920.565,VALID,0,VALID,97.2854,VALID,-0.0169808,VALID,20.5632,VALID,91,VALID,0.0653212,
2003-05-26, 00:06:00,VALID,920.566,VALID,0,VALID,97.2142,VALID,-0.0509425,VALID,20.5759,VALID,91,VALID,0.00200321,
2003-05-26, 00:07:00,VALID,920.56,VALID,0,VALID,97.2053,VALID,-0.0169808,VALID,20.5734,VALID,91,VALID,0.11859,
2003-05-26, 00:08:00,VALID,920.571,VALID,0,VALID,97.1506,VALID,-0.0169808,VALID,20.563,VALID,91,VALID,0.0394848,
2003-05-26, 00:09:00,VALID,920.568,VALID,0,VALID,97.1379,VALID,-0.0509425,VALID,20.5533,VALID,91,VALID,0.0476562,
2003-05-26, 00:10:00,VALID,920.579,VALID,0,VALID,97.1709,VALID,-0.0509425,VALID,20.5506,VALID,91,VALID,0,
2003-05-26, 00:11:00,VALID,920.566,VALID,0,VALID,97.1582,VALID,-0.0339617,VALID,20.557,VALID,91,VALID,0,
2003-05-26, 00:12:00,VALID,920.546,VALID,0,VALID,97.1633,VALID,-0.0339617,VALID,20.5506,VALID,91,VALID,0,
2003-05-26, 00:13:00,VALID,920.541,VALID,0,VALID,97.0336,VALID,-0.0169808,VALID,20.5444,VALID,81,VALID,0,
2003-05-26, 00:14:00,VALID,920.536,VALID,0,VALID,96.7895,VALID,-0.0679233,VALID,20.5183,VALID,80,VALID,0,
2003-05-26, 00:15:00,VALID,920.532,VALID,0,VALID,96.5466,VALID,-0.0169808,VALID,20.4984,VALID,80,VALID,0,
2003-05-26, 00:16:00,VALID,920.522,VALID,0,VALID,96.4944,VALID,0,VALID,20.479,VALID,80,VALID,0,
2003-05-26, 00:17:00,VALID,920.506,VALID,0,VALID,96.3787,VALID,0,VALID,20.4626,VALID,80,VALID,0,
2003-05-26, 00:18:00,VALID,920.499,VALID,0,VALID,96.4563,VALID,0,VALID,20.4469,VALID,80,VALID,0.257607,
2003-05-26, 00:19:00,VALID,920.477,VALID,0,VALID,96.7386,VALID,-0.0169808,VALID,20.4335,VALID,83,VALID,0.479852,
2003-05-26, 00:20:00,VALID,920.471,VALID,0,VALID,97.2765,VALID,-0.0339617,VALID,20.4598,VALID,88,VALID,0.567107,
2003-05-26, 00:21:00,VALID,920.478,VALID,0,VALID,97.4723,VALID,-0.0169808,VALID,20.4986,VALID,88,VALID,0.452524,
2003-05-26, 00:22:00,VALID,920.461,VALID,0,VALID,97.5677,VALID,0,VALID,20.4989,VALID,88,VALID,0.411318,
2003-05-26, 00:23:00,VALID,920.456,VALID,0,VALID,97.6313,VALID,0,VALID,20.4919,VALID,88,VALID,0.326172,
2003-05-26, 00:24:00,VALID,920.463,VALID,0,VALID,97.691,VALID,-0.0169808,VALID,20.4922,VALID,88,VALID,0.352902,
2003-05-26, 00:25:00,VALID,920.463,VALID,0,VALID,97.719,VALID,-0.0509425,VALID,20.4889,VALID,89,VALID,0.1375,
2003-05-26, 00:26:00,VALID,920.46,VALID,0,VALID,97.677,VALID,-0.118866,VALID,20.4934,VALID,89,VALID,0.259046,
2003-05-26, 00:27:00,VALID,920.477,VALID,0,VALID,97.555,VALID,-0.118866,VALID,20.4711,VALID,89,VALID,0.284821,
2003-05-26, 00:28:00,VALID,920.464,VALID,0,VALID,97.4342,VALID,-0.101885,VALID,20.4482,VALID,94,VALID,0.205221,
2003-05-26, 00:29:00,VALID,920.448,VALID,0,VALID,97.2612,VALID,-0.118866,VALID,20.4132,VALID,92,VALID,0.278927,
2003-05-26, 00:30:00,VALID,920.442,VALID,0,VALID,97.1493,VALID,-0.169808,VALID,20.3615,VALID,66,VALID,0.403716,
2003-05-26, 00:31:00,VALID,920.446,VALID,0,VALID,96.778,VALID,-0.101885,VALID,20.2902,VALID,52,VALID,0.492661,
2003-05-26, 00:32:00,VALID,920.443,VALID,0,VALID,96.3406,VALID,-0.152827,VALID,20.1835,VALID,40,VALID,0.447368,
2003-05-26, 00:33:00,VALID,920.437,VALID,0,VALID,96.2541,VALID,-0.101885,VALID,20.103,VALID,38,VALID,0.427426,
2003-05-26, 00:34:00,VALID,920.412,VALID,0,VALID,96.2477,VALID,-0.152827,VALID,20.0156,VALID,38,VALID,0.284455,
2003-05-26, 00:35:00,VALID,920.394,VALID,0,VALID,96.441,VALID,-0.101885,VALID,19.9609,VALID,38,VALID,0.446915,
2003-05-26, 00:36:00,VALID,920.359,VALID,0,VALID,96.9039,VALID,-0.152827,VALID,19.938,VALID,51,VALID,0.574747,
2003-05-26, 00:37:00,VALID,920.325,VALID,0,VALID,97.7864,VALID,-0.0679233,VALID,19.9917,VALID,63,VALID,0.687305,
2003-05-26, 00:38:00,VALID,920.297,VALID,0,VALID,98.2022,VALID,-0.0339617,VALID,20.0754,VALID,69,VALID,0.655804,
2003-05-26, 00:39:00,VALID,920.276,VALID,0,VALID,98.2569,VALID,-0.0679233,VALID,20.1052,VALID,72,VALID,0.547768,
2003-05-26, 00:40:00,VALID,920.265,VALID,0,VALID,98.2785,VALID,-0.0339617,VALID,20.1152,VALID,72,VALID,0.328742,
2003-05-26, 00:41:00,VALID,920.24,VALID,0,VALID,98.2721,VALID,-0.0169808,VALID,20.0983,VALID,72,VALID,0.236161,
2003-05-26, 00:42:00,VALID,920.238,VALID,0,VALID,98.1869,VALID,-0.0339617,VALID,20.0794,VALID,72,VALID,0.290968,
2003-05-26, 00:43:00,VALID,920.231,VALID,0,VALID,97.9619,VALID,-0.0849042,VALID,20.0466,VALID,72,VALID,0.107686,
2003-05-26, 00:44:00,VALID,920.215,VALID,0,VALID,97.9428,VALID,-0.0339617,VALID,20.0083,VALID,72,VALID,0.118666,
2003-05-26, 00:45:00,VALID,920.2,VALID,0,VALID,97.8512,VALID,-0.0509425,VALID,19.9885,VALID,72,VALID,0.118845,
2003-05-26, 00:46:00,VALID,920.174,VALID,0,VALID,97.733,VALID,-0.0339617,VALID,19.9596,VALID,72,VALID,0.118421,
2003-05-26, 00:47:00,VALID,920.149,VALID,0,VALID,97.5257,VALID,-0.0169808,VALID,19.8883,VALID,72,VALID,0.35588,
2003-05-26, 00:48:00,VALID,920.121,VALID,0,VALID,97.6287,VALID,-0.0849042,VALID,19.8466,VALID,72,VALID,0.339543,
2003-05-26, 00:49:00,VALID,920.104,VALID,0,VALID,97.6618,VALID,-0.0679233,VALID,19.8178,VALID,72,VALID,0.379006,
2003-05-26, 00:50:00,VALID,920.088,VALID,0,VALID,97.8423,VALID,-0.0339617,VALID,19.7979,VALID,72,VALID,0.457348,
2003-05-26, 00:51:00,VALID,920.085,VALID,0,VALID,97.8958,VALID,-0.0509425,VALID,19.7922,VALID,96,VALID,0.761328,
2003-05-26, 00:52:00,VALID,920.078,VALID,0,VALID,97.8398,VALID,-0.0509425,VALID,19.7564,VALID,99,VALID,0.840402,
2003-05-26, 00:53:00,VALID,920.076,VALID,0,VALID,98.0636,VALID,-0.0339617,VALID,19.7504,VALID,105,VALID,1.02054,
2003-05-26, 00:54:00,VALID,920.066,VALID,0,VALID,98.2798,VALID,0,VALID,19.7626,VALID,107,VALID,0.963405,
2003-05-26, 00:55:00,VALID,920.046,VALID,0,VALID,98.3599,VALID,-0.0339617,VALID,19.7688,VALID,94,VALID,0.65558,
2003-05-26, 00:56:00,VALID,920.035,VALID,0,VALID,98.1348,VALID,-0.0509425,VALID,19.7472,VALID,88,VALID,0.236662,
2003-05-26, 00:57:00,VALID,920.022,VALID,0,VALID,98.0522,VALID,-0.0339617,VALID,19.7149,VALID,83,VALID,0.229096,
2003-05-26, 00:58:00,VALID,920.012,VALID,0,VALID,98.281,VALID,-0.0509425,VALID,19.7184,VALID,83,VALID,0.415118,
2003-05-26, 00:59:00,VALID,919.994,VALID,0,VALID,98.365,VALID,-0.0339617,VALID,19.7213,VALID,80,VALID,0.356771,
2003-05-26, 01:00:00,VALID,919.986,VALID,0,VALID,98.4362,VALID,-0.0679233,VALID,19.7184,VALID,91,VALID,0.325041,
2003-05-26, 01:01:00,VALID,919.955,VALID,0,VALID,98.5672,VALID,-0.0679233,VALID,19.7343,VALID,99,VALID,0.52097,
2003-05-26, 01:02:00,VALID,919.939,VALID,0,VALID,98.1488,VALID,-0.0849042,VALID,19.6893,VALID,69,VALID,0.491987,
2003-05-26, 01:03:00,VALID,919.926,VALID,0,VALID,97.7241,VALID,-0.0679233,VALID,19.573,VALID,69,VALID,0.638421,
2003-05-26, 01:04:00,VALID,919.904,VALID,0,VALID,97.9403,VALID,-0.0509425,VALID,19.5469,VALID,71,VALID,0.878167,
2003-05-26, 01:05:00,VALID,919.901,VALID,0,VALID,98.4006,VALID,-0.0509425,VALID,19.5949,VALID,77,VALID,0.930859,
2003-05-26, 01:06:00,VALID,919.9,VALID,0,VALID,98.7236,VALID,-0.0339617,VALID,19.6632,VALID,78,VALID,0.821429,
2003-05-26, 01:07:00,VALID,919.904,VALID,0,VALID,98.9079,VALID,-0.0339617,VALID,19.7181,VALID,88,VALID,0.37433,
2003-05-26, 01:08:00,VALID,919.898,VALID,0,VALID,98.9715,VALID,-0.0849042,VALID,19.7569,VALID,98,VALID,0.559005,
2003-05-26, 01:09:00,VALID,919.904,VALID,0,VALID,99.1114,VALID,-0.0509425,VALID,19.8381,VALID,109,VALID,0.385491,
2003-05-26, 01:10:00,VALID,919.89,VALID,0,VALID,98.9423,VALID,-0.0849042,VALID,19.8344,VALID,105,VALID,0.267149,
2003-05-26, 01:11:00,VALID,919.867,VALID,0,VALID,98.9461,VALID,-0.0509425,VALID,19.8312,VALID,124,VALID,0.594383,
2003-05-26, 01:12:00,VALID,919.838,VALID,0,VALID,99.0198,VALID,-0.0509425,VALID,19.8607,VALID,113,VALID,0.966005,
2003-05-26, 01:13:00,VALID,919.821,VALID,0,VALID,99.0593,VALID,-0.0849042,VALID,19.8829,VALID,116,VALID,0.841146,
2003-05-26, 01:14:00,VALID,919.801,VALID,0,VALID,98.9881,VALID,-0.0849042,VALID,19.906,VALID,77,VALID,0.538857,
2003-05-26, 01:15:00,VALID,919.816,VALID,0,VALID,98.9817,VALID,-0.0679233,VALID,19.9027,VALID,103,VALID,0.509046,
2003-05-26, 01:16:00,VALID,919.804,VALID,0,VALID,98.9753,VALID,-0.0509425,VALID,19.9152,VALID,82,VALID,0.225962,
2003-05-26, 01:17:00,VALID,919.834,VALID,0,VALID,98.8876,VALID,-0.0509425,VALID,19.9251,VALID,147,VALID,0.244391,
2003-05-26, 01:18:00,VALID,919.834,VALID,0,VALID,98.8494,VALID,-0.0509425,VALID,19.9249,VALID,124,VALID,0.201436,
2003-05-26, 01:19:00,VALID,919.853,VALID,0,VALID,98.763,VALID,-0.0509425,VALID,19.9221,VALID,113,VALID,0.5375,
2003-05-26, 01:20:00,VALID,919.85,VALID,0,VALID,98.7159,VALID,-0.0509425,VALID,19.942,VALID,108,VALID,0.246652,
2003-05-26, 01:21:00,VALID,919.849,VALID,0,VALID,98.6524,VALID,-0.0679233,VALID,19.9283,VALID,96,VALID,0.377009,
2003-05-26, 01:22:00,VALID,919.834,VALID,0,VALID,98.6193,VALID,-0.0339617,VALID,19.9318,VALID,102,VALID,0.405633,
2003-05-26, 01:23:00,VALID,919.819,VALID,0,VALID,98.4909,VALID,-0.0679233,VALID,19.9249,VALID,92,VALID,0.513839,
2003-05-26, 01:24:00,VALID,919.794,VALID,0,VALID,98.4387,VALID,-0.0849042,VALID,19.9057,VALID,95,VALID,0.964367,
2003-05-26, 01:25:00,VALID,919.767,VALID,0,VALID,98.3599,VALID,-0.0849042,VALID,19.9087,VALID,89,VALID,0.86022,
2003-05-26, 01:26:00,VALID,919.753,VALID,0,VALID,98.089,VALID,-0.0679233,VALID,19.8863,VALID,69,VALID,0.862331,
2003-05-26, 01:27:00,VALID,919.721,VALID,0,VALID,97.9657,VALID,-0.0509425,VALID,19.8543,VALID,64,VALID,0.990767,
2003-05-26, 01:28:00,VALID,919.715,VALID,0,VALID,97.7711,VALID,-0.0339617,VALID,19.8217,VALID,75,VALID,0.936472,
2003-05-26, 01:29:00,VALID,919.703,VALID,0,VALID,97.8436,VALID,-0.0339617,VALID,19.8118,VALID,94,VALID,0.881168,
2003-05-26, 01:30:00,VALID,919.707,VALID,0,VALID,97.9797,VALID,-0.0509425,VALID,19.8183,VALID,105,VALID,0.910657,
2003-05-26, 01:31:00,VALID,919.682,VALID,0,VALID,97.9873,VALID,-0.0679233,VALID,19.8113,VALID,108,VALID,0.669271,
2003-05-26, 01:32:00,VALID,919.669,VALID,0,VALID,98.0026,VALID,-0.0849042,VALID,19.815,VALID,112,VALID,0.582137,
2003-05-26, 01:33:00,VALID,919.655,VALID,0,VALID,98.0369,VALID,-0.0509425,VALID,19.8155,VALID,117,VALID,0.767969,
2003-05-26, 01:34:00,VALID,919.637,VALID,0,VALID,98.0471,VALID,-0.0679233,VALID,19.8091,VALID,101,VALID,0.723214,
2003-05-26, 01:35:00,VALID,919.631,VALID,0,VALID,97.9886,VALID,-0.0169808,VALID,19.815,VALID,105,VALID,0.772768,
2003-05-26, 01:36:00,VALID,919.608,VALID,0,VALID,97.9555,VALID,-0.0339617,VALID,19.7924,VALID,129,VALID,0.772615,
2003-05-26, 01:37:00,VALID,919.609,VALID,0,VALID,97.9046,VALID,-0.0849042,VALID,19.7989,VALID,132,VALID,0.825,
2003-05-26, 01:38:00,VALID,919.591,VALID,0,VALID,97.8652,VALID,-0.0849042,VALID,19.8091,VALID,146,VALID,0.763719,
2003-05-26, 01:39:00,VALID,919.578,VALID,0,VALID,97.7864,VALID,-0.0849042,VALID,19.7964,VALID,140,VALID,0.876478,
2003-05-26, 01:40:00,VALID,919.568,VALID,0,VALID,97.7203,VALID,-0.0679233,VALID,19.773,VALID,132,VALID,0.718961,
2003-05-26, 01:41:00,VALID,919.565,VALID,0,VALID,97.7228,VALID,0.0339617,VALID,19.7524,VALID,137,VALID,0.896544,
2003-05-26, 01:42:00,VALID,919.565,VALID,0,VALID,97.7101,VALID,0.0169808,VALID,19.7494,VALID,123,VALID,1.13343,
2003-05-26, 01:43:00,VALID,919.556,VALID,0,VALID,97.6961,VALID,0.0509425,VALID,19.7363,VALID,125,VALID,0.949013,
2003-05-26, 01:44:00,VALID,919.555,VALID,0,VALID,97.6224,VALID,0,VALID,19.7037,VALID,115,VALID,1.05509,
2003-05-26, 01:45:00,VALID,919.537,VALID,0,VALID,97.5486,VALID,0.0169808,VALID,19.6913,VALID,121,VALID,1.16546,
2003-05-26, 01:46:00,VALID,919.536,VALID,0,VALID,97.4761,VALID,0.0169808,VALID,19.6746,VALID,123,VALID,0.696368,
2003-05-26, 01:47:00,VALID,919.515,VALID,0,VALID,97.4036,VALID,0.0339617,VALID,19.6488,VALID,118,VALID,0.676367,
2003-05-26, 01:48:00,VALID,919.492,VALID,0,VALID,97.3935,VALID,0.0339617,VALID,19.6304,VALID,109,VALID,1.16696,
2003-05-26, 01:49:00,VALID,919.452,VALID,0,VALID,97.3795,VALID,0,VALID,19.6051,VALID,99,VALID,0.981027,
2003-05-26, 01:50:00,VALID,919.437,VALID,0,VALID,97.3579,VALID,0.0339617,VALID,19.5685,VALID,111,VALID,1.03845,
2003-05-26, 01:51:00,VALID,919.403,VALID,0,VALID,97.4036,VALID,0,VALID,19.533,VALID,118,VALID,0.608929,
2003-05-26, 01:52:00,VALID,919.38,VALID,0,VALID,97.4303,VALID,0,VALID,19.5196,VALID,107,VALID,0.459604,
2003-05-26, 01:53:00,VALID,919.346,VALID,0,VALID,97.4443,VALID,0.0509425,VALID,19.5136,VALID,120,VALID,0.359375,
2003-05-26, 01:54:00,VALID,919.321,VALID,0,VALID,97.41,VALID,0.0169808,VALID,19.4913,VALID,127,VALID,0.553632,
2003-05-26, 01:55:00,VALID,919.305,VALID,0,VALID,97.3617,VALID,0.0169808,VALID,19.4788,VALID,128,VALID,0.612453,
2003-05-26, 01:56:00,VALID,919.294,VALID,0,VALID,97.3858,VALID,0,VALID,19.453,VALID,138,VALID,0.815173,
2003-05-26, 01:57:00,VALID,919.29,VALID,0,VALID,97.424,VALID,0.0169808,VALID,19.4329,VALID,129,VALID,0.630962,
2003-05-26, 01:58:00,VALID,919.27,VALID,0,VALID,97.3833,VALID,0.0339617,VALID,19.4138,VALID,118,VALID,0.570112,
2003-05-26, 01:59:00,VALID,919.256,VALID,0,VALID,97.4494,VALID,0.0169808,VALID,19.3981,VALID,119,VALID,0.820913,
2003-05-26, 02:00:00,VALID,919.241,VALID,0,VALID,97.63,VALID,0,VALID,19.3981,VALID,111,VALID,0.989443,
2003-05-26, 02:01:00,VALID,919.229,VALID,0,VALID,97.8055,VALID,0,VALID,19.3914,VALID,111,VALID,1.075,
2003-05-26, 02:02:00,VALID,919.199,VALID,0,VALID,97.7495,VALID,-0.0169808,VALID,19.3919,VALID,107,VALID,0.937054,
2003-05-26, 02:03:00,VALID,919.172,VALID,0,VALID,97.7533,VALID,-0.101885,VALID,19.3638,VALID,112,VALID,1.26094,
2003-05-26, 02:04:00,VALID,919.152,VALID,0,VALID,97.7571,VALID,-0.0679233,VALID,19.367,VALID,114,VALID,1.02179,
2003-05-26, 02:05:00,VALID,919.131,VALID,0,VALID,97.6313,VALID,-0.101885,VALID,19.3384,VALID,103,VALID,0.662946,
2003-05-26, 02:06:00,VALID,919.127,VALID,0,VALID,97.6376,VALID,-0.0679233,VALID,19.3126,VALID,129,VALID,0.79859,
2003-05-26, 02:07:00,VALID,919.12,VALID,0,VALID,97.6999,VALID,-0.0849042,VALID,19.3027,VALID,126,VALID,0.810389,
2003-05-26, 02:08:00,VALID,919.108,VALID,0,VALID,97.6681,VALID,-0.0679233,VALID,19.2893,VALID,123,VALID,0.867188,
2003-05-26, 02:09:00,VALID,919.104,VALID,0,VALID,97.6872,VALID,-0.0849042,VALID,19.2833,VALID,109,VALID,0.947443,
2003-05-26, 02:10:00,VALID,919.091,VALID,0,VALID,97.6046,VALID,-0.0509425,VALID,19.2733,VALID,116,VALID,0.836349,
2003-05-26, 02:11:00,VALID,919.092,VALID,0,VALID,97.6147,VALID,0.0509425,VALID,19.259,VALID,105,VALID,0.726357,
2003-05-26, 02:12:00,VALID,919.082,VALID,0,VALID,97.6541,VALID,0.0169808,VALID,19.2525,VALID,111,VALID,0.790465,
2003-05-26, 02:13:00,VALID,919.079,VALID,0,VALID,97.7686,VALID,0.0339617,VALID,19.2396,VALID,110,VALID,0.684896,
2003-05-26, 02:14:00,VALID,919.071,VALID,0,VALID,97.7877,VALID,0,VALID,19.2465,VALID,103,VALID,0.720228,
2003-05-26, 02:15:00,VALID,919.059,VALID,0,VALID,97.7444,VALID,0,VALID,19.2272,VALID,111,VALID,0.732031,
2003-05-26, 02:16:00,VALID,919.059,VALID,0,VALID,97.63,VALID,0.0169808,VALID,19.1884,VALID,112,VALID,0.585938,
2003-05-26, 02:17:00,VALID,919.066,VALID,0,VALID,97.7088,VALID,0.0169808,VALID,19.1526,VALID,81,VALID,0.504911,
2003-05-26, 02:18:00,VALID,919.062,VALID,0,VALID,97.8169,VALID,0.0339617,VALID,19.127,VALID,89,VALID,0.738076,
2003-05-26, 02:19:00,VALID,919.06,VALID,0,VALID,97.7343,VALID,0.0509425,VALID,19.0843,VALID,80,VALID,0.436384,
2003-05-26, 02:20:00,VALID,919.058,VALID,0,VALID,97.8818,VALID,0.0679233,VALID,19.0555,VALID,89,VALID,0.718559,
2003-05-26, 02:21:00,VALID,919.051,VALID,0,VALID,98.1463,VALID,0,VALID,19.0592,VALID,108,VALID,0.839738,
2003-05-26, 02:22:00,VALID,919.033,VALID,0,VALID,98.1602,VALID,0,VALID,19.0493,VALID,64,VALID,0.225929,
2003-05-26, 02:23:00,VALID,919.03,VALID,0,VALID,98.173,VALID,0.0509425,VALID,19.0101,VALID,85,VALID,0.272017,
2003-05-26, 02:24:00,VALID,919.009,VALID,0,VALID,98.0013,VALID,0.0339617,VALID,18.9686,VALID,73,VALID,0.0719572,
2003-05-26, 02:25:00,VALID,918.992,VALID,0,VALID,97.644,VALID,0.0169808,VALID,18.8814,VALID,62,VALID,0.239515,
2003-05-26, 02:26:00,VALID,918.973,VALID,0,VALID,97.2269,VALID,0.0169808,VALID,18.7651,VALID,60,VALID,0.265024,
2003-05-26, 02:27:00,VALID,918.97,VALID,0,VALID,96.8632,VALID,0.0169808,VALID,18.6424,VALID,60,VALID,0.317909,
2003-05-26, 02:28:00,VALID,918.96,VALID,0,VALID,97.0857,VALID,0.0339617,VALID,18.5746,VALID,60,VALID,0.289696,
2003-05-26, 02:29:00,VALID,918.954,VALID,0,VALID,97.5295,VALID,0.0339617,VALID,18.5813,VALID,60,VALID,0.30332,
2003-05-26, 02:30:00,VALID,918.951,VALID,0,VALID,97.5015,VALID,0.0339617,VALID,18.5591,VALID,60,VALID,0.215402,
2003-05-26, 02:31:00,VALID,918.962,VALID,0,VALID,97.129,VALID,0.0169808,VALID,18.4678,VALID,60,VALID,0.153571,
2003-05-26, 02:32:00,VALID,918.968,VALID,0,VALID,96.9255,VALID,0.0169808,VALID,18.3839,VALID,60,VALID,0,
2003-05-26, 02:33:00,VALID,918.975,VALID,0,VALID,97.0374,VALID,0.0339617,VALID,18.3456,VALID,60,VALID,0.000223214,
2003-05-26, 02:34:00,VALID,918.948,VALID,0,VALID,97.6287,VALID,0.0169808,VALID,18.349,VALID,67,VALID,0.128049,
2003-05-26, 02:35:00,VALID,918.941,VALID,0,VALID,98.0077,VALID,0.0169808,VALID,18.3841,VALID,68,VALID,0.108108,
2003-05-26, 02:36:00,VALID,918.924,VALID,0,VALID,98.3993,VALID,0.0339617,VALID,18.4357,VALID,97,VALID,0.285895,
2003-05-26, 02:37:00,VALID,918.918,VALID,0,VALID,98.5519,VALID,0.0169808,VALID,18.478,VALID,101,VALID,0.287879,
2003-05-26, 02:38:00,VALID,918.912,VALID,0,VALID,98.5061,VALID,0.0339617,VALID,18.4747,VALID,108,VALID,0.384457,
2003-05-26, 02:39:00,VALID,918.909,VALID,0,VALID,98.6498,VALID,0.0169808,VALID,18.4747,VALID,120,VALID,0.0437911,
2003-05-26, 02:40:00,VALID,918.914,VALID,0,VALID,98.735,VALID,0,VALID,18.4819,VALID,118,VALID,0.150641,
2003-05-26, 02:41:00,VALID,918.924,VALID,0,VALID,98.8316,VALID,0,VALID,18.4881,VALID,116,VALID,0.398638,
2003-05-26, 02:42:00,VALID,918.919,VALID,0,VALID,98.9118,VALID,0.0169808,VALID,18.5045,VALID,105,VALID,0.375211,
2003-05-26, 02:43:00,VALID,918.901,VALID,0,VALID,98.7121,VALID,0.0339617,VALID,18.4558,VALID,58,VALID,0.432617,
2003-05-26, 02:44:00,VALID,918.886,VALID,0,VALID,97.9809,VALID,0.0169808,VALID,18.2854,VALID,46,VALID,0.579911,
2003-05-26, 02:45:00,VALID,918.877,VALID,0,VALID,97.5804,VALID,0,VALID,18.094,VALID,46,VALID,0.651786,
2003-05-26, 02:46:00,VALID,918.862,VALID,0,VALID,97.9212,VALID,0,VALID,18.046,VALID,58,VALID,0.734992,
2003-05-26, 02:47:00,VALID,918.865,VALID,0,VALID,98.4451,VALID,0,VALID,18.0619,VALID,66,VALID,0.84308,
2003-05-26, 02:48:00,VALID,918.874,VALID,0,VALID,99.0109,VALID,0.0339617,VALID,18.159,VALID,69,VALID,0.811928,
2003-05-26, 02:49:00,VALID,918.895,VALID,0,VALID,99.1292,VALID,0,VALID,18.1814,VALID,71,VALID,0.804899,
2003-05-26, 02:50:00,VALID,918.911,VALID,0,VALID,99.3988,VALID,0,VALID,18.23,VALID,78,VALID,0.884924,
2003-05-26, 02:51:00,VALID,918.943,VALID,0,VALID,99.6035,VALID,0.0339617,VALID,18.34,VALID,89,VALID,0.891098,
2003-05-26, 02:52:00,VALID,918.947,VALID,0,VALID,99.6366,VALID,0.0169808,VALID,18.4173,VALID,92,VALID,0.840255,
2003-05-26, 02:53:00,VALID,918.95,VALID,0,VALID,99.5908,VALID,0.0339617,VALID,18.4302,VALID,91,VALID,0.704564,
2003-05-26, 02:54:00,VALID,918.941,VALID,0,VALID,99.5476,VALID,0,VALID,18.4399,VALID,94,VALID,0.826322,
2003-05-26, 02:55:00,VALID,918.909,VALID,0,VALID,99.601,VALID,0.0339617,VALID,18.4724,VALID,97,VALID,1.0633,
2003-05-26, 02:56:00,VALID,918.9,VALID,0,VALID,99.5883,VALID,0.0169808,VALID,18.4814,VALID,87,VALID,0.798775,
2003-05-26, 02:57:00,VALID,918.89,VALID,0,VALID,99.5247,VALID,0,VALID,18.4886,VALID,95,VALID,0.644922,
2003-05-26, 02:58:00,VALID,918.897,VALID,0,VALID,99.5374,VALID,0.0339617,VALID,18.4819,VALID,97,VALID,0.332589,
2003-05-26, 02:59:00,VALID,918.913,VALID,0,VALID,99.409,VALID,0,VALID,18.463,VALID,98,VALID,0.208482,
2003-05-26, 03:00:00,VALID,918.939,VALID,0,VALID,99.428,VALID,0,VALID,18.4404,VALID,95,VALID,0.49301,
2003-05-26, 03:01:00,VALID,918.948,VALID,0,VALID,99.2882,VALID,0,VALID,18.3952,VALID,100,VALID,0.421652,
2003-05-26, 03:02:00,VALID,918.955,VALID,0,VALID,99.2754,VALID,0.0169808,VALID,18.3726,VALID,83,VALID,0.694169,
2003-05-26, 03:03:00,VALID,918.955,VALID,0,VALID,98.6384,VALID,0,VALID,18.191,VALID,60,VALID,0.693412,
2003-05-26, 03:04:00,VALID,918.948,VALID,0,VALID,98.2556,VALID,0.0169808,VALID,17.9946,VALID,47,VALID,0.668919,
2003-05-26, 03:05:00,VALID,918.961,VALID,0,VALID,98.3891,VALID,0.0169808,VALID,17.93,VALID,47,VALID,0.512547,
2003-05-26, 03:06:00,VALID,918.959,VALID,0,VALID,98.2899,VALID,0,VALID,17.8788,VALID,47,VALID,0.625617,
2003-05-26, 03:07:00,VALID,918.959,VALID,0,VALID,97.8144,VALID,0.0169808,VALID,17.7429,VALID,38,VALID,0.895148,
2003-05-26, 03:08:00,VALID,918.942,VALID,0,VALID,98.3179,VALID,0.0169808,VALID,17.73,VALID,40,VALID,0.876803,
2003-05-26, 03:09:00,VALID,918.937,VALID,0,VALID,99.1114,VALID,-0.0169808,VALID,17.8105,VALID,70,VALID,0.900841,
2003-05-26, 03:10:00,VALID,918.916,VALID,0,VALID,99.6633,VALID,0.0169808,VALID,18.0045,VALID,91,VALID,1.00317,
2003-05-26, 03:11:00,VALID,918.906,VALID,0,VALID,99.7014,VALID,0.0169808,VALID,18.1368,VALID,110,VALID,1.01855,
2003-05-26, 03:12:00,VALID,918.901,VALID,0,VALID,99.6633,VALID,0,VALID,18.1627,VALID,102,VALID,0.952232,
2003-05-26, 03:13:00,VALID,918.912,VALID,0,VALID,99.6531,VALID,-0.0169808,VALID,18.1987,VALID,101,VALID,0.831696,
2003-05-26, 03:14:00,VALID,918.908,VALID,0,VALID,99.5527,VALID,0,VALID,18.1885,VALID,97,VALID,0.78125,
2003-05-26, 03:15:00,VALID,918.898,VALID,0,VALID,99.4573,VALID,0,VALID,18.1735,VALID,103,VALID,0.776116,
2003-05-26, 03:16:00,VALID,918.893,VALID,0,VALID,99.3365,VALID,0,VALID,18.1142,VALID,83,VALID,0.880907,
2003-05-26, 03:17:00,VALID,918.886,VALID,0,VALID,99.2742,VALID,-0.0169808,VALID,18.0596,VALID,88,VALID,0.854941,
2003-05-26, 03:18:00,VALID,918.895,VALID,0,VALID,99.3174,VALID,0.0339617,VALID,18.0111,VALID,102,VALID,0.930743,
2003-05-26, 03:19:00,VALID,918.904,VALID,0,VALID,99.4725,VALID,0.0169808,VALID,18.0273,VALID,105,VALID,0.987453,
2003-05-26, 03:20:00,VALID,918.903,VALID,0,VALID,99.5501,VALID,0,VALID,18.0663,VALID,90,VALID,0.840872,
2003-05-26, 03:21:00,VALID,918.901,VALID,0,VALID,99.4891,VALID,0,VALID,18.0598,VALID,80,VALID,0.92352,
2003-05-26, 03:22:00,VALID,918.905,VALID,0,VALID,99.4789,VALID,-0.0169808,VALID,18.0603,VALID,81,VALID,0.908053,
2003-05-26, 03:23:00,VALID,918.908,VALID,0,VALID,99.4713,VALID,0,VALID,18.0663,VALID,79,VALID,0.98758,
2003-05-26, 03:24:00,VALID,918.904,VALID,0,VALID,99.545,VALID,0,VALID,18.1087,VALID,89,VALID,0.977829,
2003-05-26, 03:25:00,VALID,918.903,VALID,0,VALID,99.4751,VALID,0,VALID,18.1212,VALID,78,VALID,0.838281,
2003-05-26, 03:26:00,VALID,918.915,VALID,0,VALID,99.1305,VALID,0.0169808,VALID,18.0469,VALID,69,VALID,0.954687,
2003-05-26, 03:27:00,VALID,918.917,VALID,0,VALID,98.9817,VALID,0,VALID,17.9692,VALID,66,VALID,0.898214,
2003-05-26, 03:28:00,VALID,918.908,VALID,0,VALID,98.9614,VALID,0,VALID,17.9367,VALID,69,VALID,0.813117,
2003-05-26, 03:29:00,VALID,918.903,VALID,0,VALID,98.9881,VALID,0,VALID,17.9307,VALID,80,VALID,0.841964,
2003-05-26, 03:30:00,VALID,918.89,VALID,0,VALID,99.0745,VALID,0,VALID,17.9373,VALID,83,VALID,0.964367,
2003-05-26, 03:31:00,VALID,918.892,VALID,0,VALID,99.3199,VALID,0,VALID,17.9789,VALID,99,VALID,1.10853,
2003-05-26, 03:32:00,VALID,918.889,VALID,0,VALID,99.3644,VALID,0,VALID,18.0181,VALID,111,VALID,1.00697,
2003-05-26, 03:33:00,VALID,918.886,VALID,0,VALID,99.3912,VALID,-0.0169808,VALID,18.0404,VALID,109,VALID,0.98982,
2003-05-26, 03:34:00,VALID,918.886,VALID,0,VALID,99.3441,VALID,0,VALID,18.0503,VALID,112,VALID,1.06414,
2003-05-26, 03:35:00,VALID,918.875,VALID,0,VALID,99.2754,VALID,0.0169808,VALID,18.0407,VALID,110,VALID,1.1507,